Stündliche Wetter Holyshiv

Heute, 22 Juni, Dienstag

Zeit Temperatur Niederschläge Wind Luftdruck Luftfeuchtigkeit
00:00 +20°C° 0 mm 2 m/S 742 mmHg 90%
01:00 +19°C° 0 mm 2 m/S 742 mmHg 91%
02:00 +19°C° 0 mm 2 m/S 742 mmHg 93%
03:00 +19°C° 0 mm 3 m/S 742 mmHg 93%
04:00 +19°C° 0 mm 3 m/S 742 mmHg 94%
05:00 +19°C° 0 mm 3 m/S 742 mmHg 94%
06:00 +20°C° 0 mm 3 m/S 742 mmHg 89%
07:00 +22°C° 0 mm 3 m/S 742 mmHg 83%
08:00 +25°C° 0 mm 4 m/S 742 mmHg 77%
09:00 +26°C° 0 mm 4 m/S 742 mmHg 72%
10:00 +27°C° 0 mm 4 m/S 743 mmHg 67%
11:00 +28°C° 0 mm 4 m/S 743 mmHg 62%
12:00 +29°C° 0 mm 4 m/S 743 mmHg 60%
13:00 +30°C° 0 mm 4 m/S 742 mmHg 57%
14:00 +30°C° 0 mm 3 m/S 742 mmHg 55%
15:00 +30°C° 0.1 mm 3 m/S 742 mmHg 57%
16:00 +30°C° 0.1 mm 3 m/S 742 mmHg 59%
17:00 +30°C° 0.1 mm 2 m/S 742 mmHg 60%
18:00 +29°C° 0.1 mm 2 m/S 742 mmHg 67%
19:00 +27°C° 0.1 mm 2 m/S 742 mmHg 74%
20:00 +26°C° 0.1 mm 2 m/S 742 mmHg 81%
21:00 +25°C° 0 mm 3 m/S 742 mmHg 84%
22:00 +24°C° 0 mm 3 m/S 743 mmHg 87%
23:00 +22°C° 0 mm 3 m/S 743 mmHg 89%

Morgen, 23 Juni, Mittwoch

Zeit Temperatur Niederschläge Wind Luftdruck Luftfeuchtigkeit
00:00 +21°C° 0 mm 2 m/S 743 mmHg 90%
01:00 +21°C° 0 mm 2 m/S 743 mmHg 91%
02:00 +22°C° 0 mm 1 m/S 743 mmHg 91%
03:00 +21°C° 0 mm 2 m/S 743 mmHg 92%
04:00 +20°C° 0 mm 2 m/S 743 mmHg 92%
05:00 +20°C° 0 mm 2 m/S 743 mmHg 93%
06:00 +23°C° 0 mm 2 m/S 744 mmHg 88%
07:00 +25°C° 0 mm 2 m/S 744 mmHg 83%
08:00 +26°C° 0 mm 2 m/S 744 mmHg 77%
09:00 +27°C° 0 mm 2 m/S 744 mmHg 73%
10:00 +29°C° 0 mm 2 m/S 745 mmHg 68%
11:00 +30°C° 0 mm 2 m/S 745 mmHg 64%
12:00 +30°C° 0.1 mm 2 m/S 745 mmHg 61%
13:00 +31°C° 0.1 mm 2 m/S 745 mmHg 59%
14:00 +32°C° 0.1 mm 1 m/S 745 mmHg 56%
15:00 +32°C° 0 mm 1 m/S 745 mmHg 57%
16:00 +32°C° 0 mm 1 m/S 745 mmHg 57%
17:00 +32°C° 0 mm 1 m/S 745 mmHg 58%
18:00 +30°C° 0.3 mm 1 m/S 745 mmHg 64%
19:00 +29°C° 0.3 mm 1 m/S 745 mmHg 70%
20:00 +27°C° 0.3 mm 1 m/S 745 mmHg 76%
21:00 +26°C° 0.1 mm 1 m/S 745 mmHg 78%
22:00 +26°C° 0.1 mm 1 m/S 745 mmHg 79%
23:00 +25°C° 0.1 mm 1 m/S 745 mmHg 81%

übermorgen, 24 Juni, Donnerstag

Zeit Temperatur Niederschläge Wind Luftdruck Luftfeuchtigkeit
00:00 +24°C° 0 mm 1 m/S 745 mmHg 82%
01:00 +24°C° 0 mm 1 m/S 745 mmHg 84%
02:00 +23°C° 0 mm 1 m/S 745 mmHg 86%
03:00 +21°C° 0.2 mm 0 m/S 745 mmHg 87%
04:00 +21°C° 0.2 mm 0 m/S 745 mmHg 88%
05:00 +21°C° 0.2 mm 0 m/S 745 mmHg 89%
06:00 +22°C° 0 mm 0 m/S 745 mmHg 85%
07:00 +23°C° 0 mm 0 m/S 745 mmHg 82%
08:00 +25°C° 0 mm 0 m/S 745 mmHg 78%
09:00 +26°C° 0.5 mm 0 m/S 745 mmHg 73%
10:00 +27°C° 0.5 mm 0 m/S 745 mmHg 69%
11:00 +29°C° 0.5 mm 0 m/S 746 mmHg 64%
12:00 +31°C° 0.1 mm 1 m/S 745 mmHg 59%
13:00 +32°C° 0.1 mm 1 m/S 745 mmHg 55%
14:00 +32°C° 0.1 mm 1 m/S 745 mmHg 51%
15:00 +32°C° 0 mm 1 m/S 745 mmHg 51%
16:00 +32°C° 0 mm 1 m/S 745 mmHg 52%
17:00 +32°C° 0 mm 1 m/S 745 mmHg 52%
18:00 +30°C° 0.1 mm 1 m/S 745 mmHg 60%
19:00 +28°C° 0.1 mm 2 m/S 745 mmHg 69%
20:00 +26°C° 0.1 mm 2 m/S 745 mmHg 78%
21:00 +26°C° 0 mm 2 m/S 745 mmHg 79%
22:00 +25°C° 0 mm 2 m/S 744 mmHg 81%
23:00 +24°C° 0 mm 2 m/S 744 mmHg 82%

25 Juni, Freitag

Zeit Temperatur Niederschläge Wind Luftdruck Luftfeuchtigkeit
00:00 +24°C° 0 mm 2 m/S 744 mmHg 84%
01:00 +23°C° 0 mm 2 m/S 744 mmHg 85%
02:00 +23°C° 0 mm 2 m/S 744 mmHg 87%
03:00 +23°C° 0.1 mm 2 m/S 744 mmHg 87%
04:00 +23°C° 0.1 mm 2 m/S 744 mmHg 88%
05:00 +23°C° 0.1 mm 2 m/S 743 mmHg 88%
06:00 +24°C° 0.1 mm 3 m/S 743 mmHg 83%
07:00 +26°C° 0.1 mm 3 m/S 744 mmHg 79%
08:00 +28°C° 0.1 mm 3 m/S 744 mmHg 74%
09:00 +29°C° 0 mm 4 m/S 743 mmHg 69%
10:00 +30°C° 0 mm 4 m/S 743 mmHg 64%
11:00 +33°C° 0 mm 5 m/S 743 mmHg 58%
12:00 +33°C° 0 mm 4 m/S 743 mmHg 58%
13:00 +33°C° 0 mm 4 m/S 743 mmHg 58%
14:00 +33°C° 0 mm 4 m/S 743 mmHg 58%
15:00 +33°C° 0 mm 4 m/S 742 mmHg 59%
16:00 +34°C° 0 mm 4 m/S 742 mmHg 59%
17:00 +34°C° 0 mm 3 m/S 742 mmHg 60%
18:00 +31°C° 0.9 mm 3 m/S 742 mmHg 68%
19:00 +28°C° 0.9 mm 3 m/S 741 mmHg 77%
20:00 +26°C° 0.9 mm 3 m/S 741 mmHg 85%
21:00 +24°C° 1.3 mm 3 m/S 742 mmHg 87%
22:00 +23°C° 1.3 mm 2 m/S 742 mmHg 90%
23:00 +20°C° 1.3 mm 2 m/S 742 mmHg 92%

26 Juni, Samstag

Zeit Temperatur Niederschläge Wind Luftdruck Luftfeuchtigkeit
00:00 +20°C° 0.3 mm 2 m/S 742 mmHg 93%
01:00 +19°C° 0.3 mm 2 m/S 743 mmHg 94%
02:00 +19°C° 0.3 mm 2 m/S 743 mmHg 95%
03:00 +19°C° 0 mm 3 m/S 743 mmHg 96%
04:00 +18°C° 0 mm 3 m/S 743 mmHg 96%
05:00 +18°C° 0 mm 4 m/S 743 mmHg 96%
06:00 +19°C° 0 mm 4 m/S 744 mmHg 90%
07:00 +19°C° 0 mm 5 m/S 744 mmHg 84%
08:00 +19°C° 0 mm 5 m/S 745 mmHg 77%
09:00 +21°C° 0 mm 5 m/S 745 mmHg 72%
10:00 +22°C° 0 mm 5 m/S 745 mmHg 66%
11:00 +23°C° 0 mm 5 m/S 745 mmHg 61%
12:00 +25°C° 0 mm 4 m/S 745 mmHg 59%
13:00 +25°C° 0 mm 4 m/S 745 mmHg 57%
14:00 +26°C° 0 mm 3 m/S 745 mmHg 56%
15:00 +26°C° 0 mm 3 m/S 745 mmHg 57%
16:00 +26°C° 0 mm 3 m/S 744 mmHg 58%
17:00 +26°C° 0 mm 3 m/S 744 mmHg 58%
18:00 +24°C° 0 mm 3 m/S 744 mmHg 65%
19:00 +22°C° 0 mm 3 m/S 744 mmHg 71%
20:00 +21°C° 0 mm 3 m/S 744 mmHg 78%
21:00 +20°C° 0 mm 3 m/S 744 mmHg 78%
22:00 +19°C° 0 mm 2 m/S 745 mmHg 78%
23:00 +18°C° 0 mm 2 m/S 745 mmHg 78%

27 Juni, Sonntag

Zeit Temperatur Niederschläge Wind Luftdruck Luftfeuchtigkeit
00:00 +17°C° 0 mm 2 m/S 745 mmHg 79%
01:00 +17°C° 0 mm 2 m/S 745 mmHg 80%
02:00 +16°C° 0 mm 2 m/S 745 mmHg 81%
03:00 +16°C° 0 mm 2 m/S 745 mmHg 82%
04:00 +16°C° 0 mm 2 m/S 745 mmHg 82%
05:00 +16°C° 0 mm 2 m/S 745 mmHg 83%
06:00 +17°C° 0 mm 2 m/S 745 mmHg 81%
07:00 +18°C° 0 mm 2 m/S 746 mmHg 78%
08:00 +19°C° 0 mm 2 m/S 746 mmHg 76%
09:00 +19°C° 0 mm 2 m/S 746 mmHg 75%
10:00 +20°C° 0 mm 2 m/S 746 mmHg 74%
11:00 +20°C° 0 mm 2 m/S 746 mmHg 72%
12:00 +22°C° 0 mm 1 m/S 746 mmHg 71%
13:00 +22°C° 0 mm 1 m/S 746 mmHg 70%
14:00 +23°C° 0 mm 1 m/S 746 mmHg 69%
15:00 +23°C° 0 mm 1 m/S 746 mmHg 67%
16:00 +24°C° 0 mm 1 m/S 746 mmHg 65%
17:00 +24°C° 0 mm 1 m/S 746 mmHg 64%
18:00 +23°C° 0.1 mm 1 m/S 745 mmHg 68%
19:00 +22°C° 0.1 mm 1 m/S 745 mmHg 73%
20:00 +21°C° 0.1 mm 1 m/S 745 mmHg 78%
21:00 +20°C° 0 mm 1 m/S 745 mmHg 81%
22:00 +20°C° 0 mm 1 m/S 745 mmHg 83%
23:00 +18°C° 0 mm 2 m/S 745 mmHg 86%
Mehr zeigen

Wir brauchen deine Erlaubnis

Meteoprog und unser Service Anbieter werden persönliche Daten aufbewahren, so wie Cookies, Geräte Bezeichnung oder ähnliche Technologien von deinem Gerät und Prozess, so wie Persönliche Daten Inhalte und Werbungen, genauso wie social Media und den Verkehr zu analysieren.

  • Aufbewahrung und/oder Zugang zu deiner Geräte Informationen.

    Cookies, Geräte Bezeichnung oder andere Informationen, können aufbewahrt oder Zugang zu deinem Gerät erhalten, für den Grund, der oben angegeben wird.

  • Personalisierte Werbung und Inhalte, Messungen, Einblick in das Publikum und Produkt Entwicklung.

    Werbungen und Inhalte können personalisiert werden, basierend auf ein Profil. Mehr Daten können besser personalisierte Werbungen und Inhalte hinzufügen. Werbung und Inhalte können gezeigt und gemessen werden. Einblicke über das Publikum, welche die Werbung gesehen haben und den Inhalt, können abgeleitet werden. So wie Daten können genutzt werden, um es zu verbessern oder die Benutzer Erfahrung zu verbessern das System und die Software.

Wenn du “Ich stimme zu” klickst, erlaubst du uns, die Cookies zu benutzen die Geräte Bezeichnung, den Web oder ähnliche Technologien zu benutzen. Deine Settings, können in deinem Gerät bei deinem Browser geändert werden.

Für den bestimmten Zweck, berechtigten Interessen beruhen darauf, mehr als auf den Inhalt. Du kannst mehr darüber in unseren Privaten und Cookie Politik lesen.